Station LNDC1 - 9414763 - Oakland Berth 67, CA Image indicating link to RSS feed of recent meteorological observations for station LNDC1


Conditions at LNDC1 as of
(3:30 pm PDT)
2230 GMT on 06/13/2024:
     

Click on the graph icon in the table below to see a time series plot of the last five days of that observation.

5-day plot - Wind Direction Wind Direction (WDIR):WSW ( 250 deg true )
5-day plot - Wind Speed Wind Speed (WSPD): 8.9 kts
5-day plot - Wind Gust Wind Gust (GST): 15.9 kts
5-day plot - Atmospheric Pressure Atmospheric Pressure (PRES):30.00 in
5-day plot - Air Temperature Air Temperature (ATMP): 56.1 °F
5-day plot - Wind Speed at 10 Meters Wind Speed at 10 meters (WSPD10M): 9.7 kts
5-day plot - Wind Speed at 20 Meters Wind Speed at 20 meters (WSPD20M): 9.7 kts
5-day plot -  Wind Speed, Wind Gust and Atmospheric Pressure Combined plot of Wind Speed, Gust, and Air Pressure
NOS Water Level Observation Network Water Level
Previous observations
TIME
(PDT)
5-day plot - Wind Direction
WDIR
 
5-day plot - Wind Speed
WSPD
kts
5-day plot - Wind Gust
GST
kts
5-day plot - Wave Height
WVHT
ft
5-day plot - Dominant Wave Period
DPD
sec
5-day plot - Average Wave Period
APD
sec
5-day plot - Mean Wave Direction
MWD
 
5-day plot - Atmospheric Pressure
PRES
in
5-day plot - Pressure Tendency
PTDY
in
5-day plot - Air Temperature
ATMP
°F
5-day plot - Water Temperature
WTMP
°F
5-day plot - Dew Point
DEWP
°F
5-day plot - Salinity
SAL
psu
5-day plot - Visibility
VIS
nmi
5-day plot - Tide (above MLLW)
TIDE
ft
2024-06-13 03:24 pm W 8.9 15.0----30.00- 56.1-----
2024-06-13 03:18 pmWSW 12.0 15.9----30.00- 55.9-----
2024-06-13 03:12 pmWSW 11.1 14.0----30.00- 55.9-----
2024-06-13 03:06 pm W 11.1 15.9----30.01- 55.8-----
2024-06-13 03:00 pmWSW 8.9 15.9----30.00+0.01------
2024-06-13 02:54 pm W 8.9 17.1----30.00-------
2024-06-13 02:48 pm W 9.9 14.0----30.00- 56.1-----
2024-06-13 02:42 pm W 9.9 17.1----30.01- 55.9-----
2024-06-13 02:36 pm W 9.9 15.0----30.01- 55.9-----
2024-06-13 02:30 pm W 12.0 18.1----30.01- 56.1-----
2024-06-13 02:24 pm W 11.1 15.9----30.01- 56.1-----
2024-06-13 02:18 pm W 11.1 15.0----30.01-------
2024-06-13 02:12 pm W 9.9 17.1----30.00-------
2024-06-13 02:06 pmWSW 11.1 15.9----30.00-------
2024-06-13 02:00 pmWSW 9.9 15.9----30.00+0.02 55.6-----
2024-06-13 01:54 pmWSW 8.9 14.0----30.00- 55.2-----
2024-06-13 01:48 pm W 8.9 13.0----30.00- 55.6-----
2024-06-13 01:42 pmWSW 8.9 18.1----30.00- 55.0-----
2024-06-13 01:36 pm W 8.0 15.0----30.00- 55.4-----
2024-06-13 01:30 pmWSW 8.9 14.0----30.00- 55.4-----
2024-06-13 01:24 pmWSW 11.1 14.0----30.00- 54.7-----
2024-06-13 01:18 pm W 8.0 13.0----30.00-------
2024-06-13 01:12 pmWSW 11.1 15.0----30.00-------
2024-06-13 01:06 pmWSW 9.9 14.0----30.00-------
2024-06-13 01:00 pmWSW 9.9 14.0----30.00+0.04 54.9-----
2024-06-13 12:54 pm W 8.0 13.0----30.00- 55.0-----
2024-06-13 12:48 pm W 11.1 15.9----30.00- 54.5-----
2024-06-13 12:42 pm W 9.9 15.0----30.00- 55.0-----
2024-06-13 12:36 pmWSW 9.9 15.9----30.00- 55.4-----
2024-06-13 12:30 pm W 9.9 17.1----30.00-------
2024-06-13 12:24 pmWSW 11.1 15.9----30.00-------
2024-06-13 12:18 pm W 9.9 15.0----30.00- 54.5-----
2024-06-13 12:12 pmWSW 9.9 15.0----29.99- 54.9-----
2024-06-13 12:06 pm W 8.0 15.0----29.99- 54.9-----
2024-06-13 12:00 pmWSW 11.1 15.0----29.99- 54.9-----
2024-06-13 11:54 amWSW 12.0 15.0----29.99- 54.9-----
2024-06-13 11:48 am W 8.0 15.9----29.99-------
2024-06-13 11:42 amWSW 11.1 15.0----29.99-------
2024-06-13 11:36 am W 8.9 15.0----29.99-------
2024-06-13 11:30 amWSW 11.1 17.1----29.98-------
2024-06-13 11:24 amWSW 11.1 15.0----29.98-------
2024-06-13 11:18 amWSW 9.9 15.0----29.98- 55.6-----
2024-06-13 11:12 amWSW 9.9 15.0----29.98- 55.6-----
2024-06-13 11:06 am W 8.9 15.0----29.98- 55.4-----
2024-06-13 11:00 amWSW 9.9 13.0----29.98+0.03------
2024-06-13 10:54 amWSW 11.1 15.0----29.98-------
2024-06-13 10:48 am W 8.9 13.0----29.97-------
2024-06-13 10:42 am W 8.9 14.0----29.97-------
2024-06-13 10:36 amWSW 11.1 15.0----29.97-------
2024-06-13 10:30 am--------- 55.6-----
2024-06-13 10:24 am--------- 55.6-----
2024-06-13 10:18 am W 8.9 13.0----29.96- 55.4-----
2024-06-13 10:12 amWSW 9.9 14.0----29.96- 55.4-----
2024-06-13 10:06 amWSW 8.0 12.0----29.96- 55.8-----
2024-06-13 10:00 am-------29.96+0.04 55.4-----
2024-06-13 09:54 am-------29.96- 55.4-----
2024-06-13 09:48 am W 8.0 12.0----29.96- 55.6-----
2024-06-13 09:42 amWSW 8.0 11.1----29.96- 55.4-----
2024-06-13 09:36 am W 8.0 13.0----29.96- 55.2-----
2024-06-13 09:30 am-------29.96- 55.4-----
2024-06-13 09:24 am-------29.96- 55.9-----
2024-06-13 09:18 am W 6.0 8.9----29.96-------
2024-06-13 09:12 am W 7.0 8.9----29.96-------
2024-06-13 09:06 am W 6.0 8.0----29.96-------
2024-06-13 09:00 am W 8.0 11.1------ 54.7-----
2024-06-13 08:54 am W 6.0 9.9------ 54.7-----
2024-06-13 08:48 amWSW 8.0 11.1----29.96-------
2024-06-13 08:42 am W 6.0 11.1----29.96-------
2024-06-13 08:36 am W 7.0 11.1----29.96-------
2024-06-13 08:30 am W 8.0 11.1----29.95-------
2024-06-13 08:24 amWSW 8.9 12.0----29.95-------
2024-06-13 08:18 amWSW 7.0 12.0----29.95- 55.2-----
2024-06-13 08:12 am W 7.0 12.0----29.95- 55.0-----
2024-06-13 08:06 am W 6.0 9.9----29.95- 55.2-----
2024-06-13 08:00 am W 7.0 9.9----29.94+0.05 55.2-----
2024-06-13 07:54 amWSW 7.0 9.9----29.94- 55.2-----
2024-06-13 07:48 am W 6.0 8.9----29.94- 55.2-----
2024-06-13 07:42 am W 6.0 8.9----29.93- 55.2-----
2024-06-13 07:36 am W 6.0 8.9----29.93- 55.6-----
2024-06-13 07:30 am W 5.1 9.9----29.93-------
2024-06-13 07:24 am W 6.0 8.9----29.93-------
2024-06-13 07:18 am W 6.0 8.9----29.93- 54.9-----
2024-06-13 07:12 am W 7.0 9.9----29.93- 54.9-----
2024-06-13 07:06 am W 5.1 8.9----29.93- 55.2-----
2024-06-13 07:00 am W 5.1 8.0----29.93+0.04 55.2-----
2024-06-13 06:54 amWSW 6.0 8.0----29.93- 55.4-----
2024-06-13 06:48 amWSW 4.1 7.0----29.92- 55.0-----
2024-06-13 06:42 am W 5.1 8.0----29.92- 54.9-----
2024-06-13 06:36 am W 6.0 8.0----29.92- 54.9-----
2024-06-13 06:30 am W 6.0 8.0----29.92- 54.7-----
2024-06-13 06:24 am W 5.1 8.0----29.92- 54.7-----
2024-06-13 06:18 am W 6.0 8.9----29.91- 54.9-----
2024-06-13 06:12 am W 5.1 8.0----29.91- 55.0-----
2024-06-13 06:06 am W 5.1 7.0----29.91- 54.9-----
2024-06-13 06:00 am W 6.0 8.0----29.91+0.01 54.9-----
2024-06-13 05:54 am W 5.1 8.0----29.91- 54.9-----
2024-06-13 05:48 am W 5.1 8.0----29.91- 54.9-----
2024-06-13 05:42 am W 4.1 8.0----29.90- 55.0-----
2024-06-13 05:36 am W 5.1 7.0----29.90- 54.9-----
2024-06-13 05:30 am W 5.1 8.0----29.90- 54.9-----
2024-06-13 05:24 am W 6.0 8.0----29.90- 54.9-----
2024-06-13 05:18 am W 5.1 7.0----29.90- 54.7-----
2024-06-13 05:12 amWSW 4.1 8.0----29.90- 55.2-----
2024-06-13 05:06 am W 5.1 8.0----29.90- 54.9-----
2024-06-13 05:00 am W 4.1 7.0----29.90+0.00 55.2-----
2024-06-13 04:54 am W 2.9 6.0----29.90- 55.0-----
2024-06-13 04:48 am W 4.1 7.0----29.90-------
2024-06-13 04:42 am W 5.1 8.0----29.89-------
2024-06-13 04:36 amWNW 4.1 6.0----29.89-------
2024-06-13 04:30 amWNW 5.1 7.0----29.89- 54.9-----
2024-06-13 04:24 amWNW 4.1 6.0----29.89- 55.2-----
2024-06-13 04:18 amWNW 4.1 6.0----29.89- 55.0-----
2024-06-13 04:12 amWNW 4.1 6.0----29.89- 55.0-----
2024-06-13 04:06 am W 2.9 5.1----29.89- 55.4-----
2024-06-13 04:00 am W 4.1 6.0----29.89-0.01 55.4-----
2024-06-13 03:54 amWNW 5.1 7.0----29.89- 55.8-----
2024-06-13 03:48 amWNW 2.9 5.1----29.89- 55.6-----
2024-06-13 03:42 am W 4.1 5.1----29.89- 55.6-----
2024-06-13 03:36 am W 2.9 7.0----29.89- 55.8-----
2024-06-13 03:30 amWNW 2.9 4.1----29.89- 55.8-----
2024-06-13 03:24 am NW 1.9 4.1----29.89- 55.8-----
2024-06-13 03:18 am NW 2.9 5.1----29.89- 56.1-----
2024-06-13 03:12 amWNW 2.9 5.1----29.89- 55.8-----
2024-06-13 03:06 amWNW 2.9 4.1----29.89- 55.9-----
2024-06-13 03:00 amWNW 4.1 5.1----29.90-0.01 55.8-----
2024-06-13 02:54 amWNW 4.1 5.1----29.90- 55.8-----
2024-06-13 02:48 amWNW 4.1 5.1----29.90- 55.9-----
2024-06-13 02:42 am W 4.1 5.1----29.90- 55.9-----
2024-06-13 02:36 am W 4.1 5.1----29.90- 55.9-----
2024-06-13 02:30 am N 1.9 4.1----29.90- 56.1-----
2024-06-13 02:24 amWNW 1.9 2.9----29.90- 56.1-----
2024-06-13 02:18 am- 0.0 2.9----29.90- 56.3-----
2024-06-13 02:12 am N 2.9 2.9----29.90- 56.1-----
2024-06-13 02:06 amNNE 1.9 4.1----29.90- 56.1-----
2024-06-13 02:00 amNNE 2.9 4.1----29.90-0.01 56.1-----
2024-06-13 01:54 amNNE 2.9 4.1----29.90- 56.1-----
2024-06-13 01:48 am N 1.0 1.9----29.90- 56.1-----
2024-06-13 01:42 am- 0.0 1.9----29.90- 56.3-----
2024-06-13 01:36 am- 0.0 1.9----29.90- 56.1-----
2024-06-13 01:30 am NW 1.9 2.9----29.90- 56.3-----
2024-06-13 01:24 amNNE 2.9 4.1----29.90- 56.1-----
2024-06-13 01:18 amNNE 2.9 5.1----29.90- 56.1-----
2024-06-13 01:12 am N 2.9 4.1----29.90- 56.3-----
2024-06-13 01:06 am N 2.9 5.1----29.90- 56.3-----
2024-06-13 01:00 am W 2.9 5.1----29.91+0.00 56.5-----
2024-06-13 12:54 am W 1.9 5.1----29.91- 56.1-----
2024-06-13 12:48 amWNW 2.9 5.1----29.91- 56.1-----
2024-06-13 12:42 amNNW 2.9 5.1----29.91- 56.5-----
2024-06-13 12:36 am NW 4.1 6.0----29.91- 56.5-----
2024-06-13 12:30 am NW 5.1 8.0----29.91- 56.3-----
2024-06-13 12:24 amWNW 2.9 5.1----29.91- 56.3-----
2024-06-13 12:18 amWNW 5.1 8.0----29.91- 56.1-----
2024-06-13 12:12 amWNW 6.0 8.0----29.91- 56.1-----
2024-06-13 12:06 am NW 5.1 6.0----29.91- 56.1-----
2024-06-13 12:00 amNNW 5.1 7.0----29.91+0.01 55.9-----
2024-06-12 11:54 pm NW 5.1 7.0----29.91- 56.1-----
2024-06-12 11:48 pmWNW 5.1 7.0----29.91-------
2024-06-12 11:42 pm NW 5.1 8.0----29.91-------
2024-06-12 11:36 pm NW 2.9 8.0----29.91-------
2024-06-12 11:30 pmWNW 4.1 8.0----29.91- 55.9-----
2024-06-12 11:24 pm NW 4.1 7.0----29.91- 56.1-----
2024-06-12 11:18 pm NW 4.1 6.0----29.91- 55.9-----
2024-06-12 11:12 pm NW 2.9 7.0----29.91- 56.1-----
2024-06-12 11:06 pm W 4.1 7.0----29.91- 55.9-----
2024-06-12 11:00 pmWNW 2.9 5.1----29.91+0.02------
2024-06-12 10:54 pm W 5.1 6.0----29.91-------
2024-06-12 10:48 pm-------29.91- 55.9-----
2024-06-12 10:42 pm-------29.91- 55.9-----
2024-06-12 10:36 pm-------29.91- 56.1-----
2024-06-12 10:30 pmWNW 5.1 8.0----29.91- 55.9-----
2024-06-12 10:24 pm W 5.1 8.0----29.91- 55.9-----
2024-06-12 10:18 pm W 5.1 7.0----29.91- 55.9-----
2024-06-12 10:12 pmWNW 4.1 7.0----29.91- 56.1-----
2024-06-12 10:06 pm W 6.0 8.9----29.91- 56.1-----
2024-06-12 10:00 pm-------29.91- 56.3-----
2024-06-12 09:54 pm-------29.91- 55.9-----
2024-06-12 09:48 pm W 6.0 11.1----29.90- 56.1-----
2024-06-12 09:42 pm W 6.0 9.9----29.90- 56.3-----
2024-06-12 09:36 pmWNW 6.0 12.0----29.90- 56.1-----
2024-06-12 09:30 pm W 7.0 12.0----29.90- 56.1-----
2024-06-12 09:24 pmWNW 8.9 13.0----29.90- 55.9-----
2024-06-12 09:18 pm W 8.0 11.1----29.90- 56.1-----
2024-06-12 09:12 pm W 7.0 11.1----29.90- 56.1-----
2024-06-12 09:06 pm W 8.9 13.0----29.90- 56.1-----
2024-06-12 09:00 pm W 8.0 13.0----29.90- 56.3-----
2024-06-12 08:54 pm W 7.0 12.0----29.90- 56.3-----
2024-06-12 08:48 pm W 8.9 13.0----29.89-------
2024-06-12 08:42 pm W 8.0 14.0----29.89-------
2024-06-12 08:36 pm W 7.0 12.0----29.89-------
2024-06-12 08:30 pm W 9.9 15.0------------
2024-06-12 08:24 pm W 8.9 14.0------------
2024-06-12 08:18 pm W 9.9 14.0----29.89-------
2024-06-12 08:12 pm W 8.0 12.0----29.89-------
2024-06-12 08:06 pm W 8.9 13.0----29.89-------
2024-06-12 08:00 pm W 7.0 14.0----29.89-0.01 57.6-----
2024-06-12 07:54 pm W 8.9 12.0----29.89- 57.9-----
2024-06-12 07:48 pm W 8.0 12.0----29.89- 58.3-----
2024-06-12 07:42 pmWNW 8.0 12.0----29.89- 58.3-----
2024-06-12 07:36 pmWNW 7.0 17.1----29.90- 58.8-----
2024-06-12 07:30 pmWNW 8.0 13.0----29.90- 59.0-----
2024-06-12 07:24 pm W 8.9 14.0----29.89- 58.8-----
2024-06-12 07:18 pm W 8.9 17.1----29.90- 59.2-----
2024-06-12 07:12 pm W 7.0 12.0----29.89- 59.7-----
2024-06-12 07:06 pm W 8.9 13.0----29.89- 59.4-----
2024-06-12 07:00 pm W 8.9 13.0------------
2024-06-12 06:54 pmWNW 9.9 15.0------------
2024-06-12 06:48 pmWNW 8.9 15.0----29.89-------
2024-06-12 06:42 pmWNW 8.9 15.0----29.89-------
2024-06-12 06:36 pmWNW 8.0 15.0----29.89-------
2024-06-12 06:30 pm W 9.9 13.0----29.89- 61.2-----
2024-06-12 06:24 pmWNW 8.0 13.0----29.89- 61.7-----
2024-06-12 06:18 pm W 7.0 9.9----29.89-------
2024-06-12 06:12 pmWNW 8.0 11.1----29.89-------
2024-06-12 06:06 pm W 8.0 12.0----29.89-------
2024-06-12 06:00 pm W 9.9 13.0------------
2024-06-12 05:54 pm W 8.0 12.0------------
2024-06-12 05:48 pmWNW 8.0 11.1----29.89-------
2024-06-12 05:42 pm W 7.0 9.9----29.89-------
2024-06-12 05:36 pm W 8.0 9.9----29.90-------
2024-06-12 05:30 pm W 7.0 11.1----29.90-------
2024-06-12 05:24 pm W 6.0 11.1----29.90-------
2024-06-12 05:18 pm W 8.0 12.0----29.90- 62.6-----
2024-06-12 05:12 pmWNW 6.0 11.1----29.90- 63.3-----
2024-06-12 05:06 pmWNW 7.0 9.9----29.90- 62.8-----
2024-06-12 05:00 pm W 5.1 9.9----29.90-0.02------
2024-06-12 04:54 pmWNW 8.0 11.1----29.91-------
2024-06-12 04:48 pm W 6.0 11.1----29.91-------
2024-06-12 04:42 pmWNW 6.0 8.9----29.91-------
2024-06-12 04:36 pm W 6.0 9.9----29.91-------
2024-06-12 04:30 pm W 5.1 8.9----29.91- 62.2-----
2024-06-12 04:24 pm W 8.0 9.9----29.91- 61.5-----
2024-06-12 04:18 pm NW 5.1 8.9----29.91- 62.4-----
2024-06-12 04:12 pmWNW 6.0 9.9----29.91- 62.6-----
2024-06-12 04:00 pmWNW 7.0 11.1----29.91-0.01------
2024-06-12 03:54 pmWNW 6.0 8.9----29.91-------